This is the latest recevied weather packets stored in our database for station/object KE2A-13. If no packets are shown the sender has not sent any weather packets the latest 10 day(s).
| Time | Temp. | Humidity | Pressure | Rain* | Wind** | Luminosity | Snow |
|---|---|---|---|---|---|---|---|
| 1777524300 | 8.33° C | 96% | 1010.4 hPa | 2.29 mm | - | - | - |
| 1777523400 | 8.33° C | 96% | 1010.3 hPa | 2.79 mm | - | - | - |
| 1777522500 | 8.89° C | 95% | 1010.7 hPa | 2.79 mm | - | - | - |
| 1777521600 | 8.89° C | 95% | 1010.8 hPa | 3.56 mm | - | - | - |
| 1777520700 | 8.89° C | 95% | 1011 hPa | 3.81 mm | - | - | - |
| 1777519800 | 8.89° C | 95% | 1010.7 hPa | 4.57 mm | - | - | - |
| 1777518900 | 9.44° C | 94% | 1011.2 hPa | 4.06 mm | - | - | - |
| 1777518000 | 9.44° C | 93% | 1011.2 hPa | 3.05 mm | - | - | - |
| 1777517100 | 9.44° C | 91% | 1011.6 hPa | 2.29 mm | - | - | - |
| 1777516200 | 10° C | 90% | 1011.6 hPa | 2.29 mm | - | - | - |
| 1777515300 | 10° C | 89% | 1011.7 hPa | 1.52 mm | - | - | - |
| 1777514401 | 10.56° C | 87% | 1011.5 hPa | 1.02 mm | - | - | - |
| 1777513500 | 11.11° C | 82% | 1011.4 hPa | 0.25 mm | - | - | - |
| 1777512600 | 11.11° C | 75% | 1010.9 hPa | 0.51 mm | - | - | - |
| 1777511700 | 11.67° C | 72% | 1011.2 hPa | 0.25 mm | - | - | - |
| 1777510800 | 11.67° C | 71% | 1011.4 hPa | 0.25 mm | - | - | - |
| 1777509900 | 11.67° C | 71% | 1011.5 hPa | - | - | - | - |
| 1777509000 | 12.22° C | 68% | 1011.4 hPa | - | - | - | - |
| 1777508100 | 12.22° C | 67% | 1011.3 hPa | - | - | - | - |
| 1777507200 | 12.78° C | 63% | 1011.3 hPa | - | - | - | - |
| 1777506300 | 13.33° C | 61% | 1011.3 hPa | - | - | - | - |
| 1777505400 | 13.33° C | 58% | 1011 hPa | - | - | - | - |
| 1777504500 | 13.33° C | 58% | 1011 hPa | - | - | - | - |
| 1777503600 | 13.89° C | 58% | 1010.9 hPa | - | - | - | - |
| 1777502700 | 13.89° C | 56% | 1010.9 hPa | - | - | - | - |
* Rain latest hour (hover to see other rain measurements)
** Current wind speed in m/s (hover to see current wind gust speed)